Tracking 25620 objects as of 18-May-2022
HD Live streaming from Space Station
objects crossing your sky now

STARLINK-1088

Track STARLINK-1088 now!
10-day predictions
STARLINK-1088 is classified as:


NORAD ID: 44966
Int'l Code: 2020-001BE
Perigee: 553.2 km
Apogee: 555.5 km
Inclination: 53.1 °
Period: 95.6 minutes
Semi major axis: 6925 km
RCS: Unknown
Launch date: January 7, 2020
Source: United States (US)
Launch site: AIR FORCE EASTERN TEST RANGE (AFETR)
aabbcc
Your satellite tracking list
Your tracking list is empty




NASA's NSSDC Master Catalog

Two Line Element Set (TLE):
1 44966U 20001BE  22138.18176942 -.00000291  00000-0 -66391-6 0  9991
2 44966  53.0563  73.3461 0001659  66.5870 293.5294 15.06400940130670
Source of the keplerian elements: AFSPC